Location: Dal�� Lhota
(48.7500°N, 14.0167°E)
Time: 23:09:40
(UTC+00:00)

SJ 16-02 - Pass Details

Date: 24 September 2020
Orbit: 606 x 616 km, 75.0° (Epoch: 25 October)

Event Time Altitude Azimuth Distance (km) Brightness Sun altitude
Rises 17:50:36 0° 247° (WSW) 2,859 5.8 -9.6°
Reaches altitude 10° 17:53:35 10° 269° (W) 1,959 5.4 -10.1°
Maximum altitude 17:56:22 16° 309° (NW) 1,585 4.4 -10.6°
Drops below altitude 10° 17:59:10 10° 349° (N) 1,968 4.2 -11.0°
Sets 18:02:11 0° 11° (N) 2,878 4.8 -11.5°
